Location: Unspecified
(0.0000°N, 0.0000°E)
Time: 08:29:42
(UTC+00:00)

METEOR M2 - Pass Details

Date: 27 November 2022
Orbit: 818 x 827 km, 98.4° (Epoch: 01 February)

Event Time Altitude Azimuth Distance (km) Brightness Sun altitude
Rises 18:41:24 0° 181° (S) 3,359 ? -12.5°
Reaches altitude 10° 18:43:52 10° 187° (S) 2,425 ? -13.1°
Maximum altitude 18:48:55 43° 257° (WSW) 1,149 ? -14.2°
Drops below altitude 10° 18:53:58 10° 328° (NNW) 2,420 ? -15.4°
Sets 18:56:26 0° 335° (NNW) 3,351 ? -16.0°
